GW2922 Weather Reports


time (UTC)temp
C
wind
direction
speed
KPH
gust
KPH
rain 1hr
cm
rain 24hr
cm
rain mn
cm
humidity
%
barometer
mb
20260508173821 11 85 0.0 0.0 0.00 0.00 0.00 78 1022.3
20260508173319 11 90 0.0 1.6 0.00 0.00 0.00 79 1021.9
20260508172814 11 136 0.0 1.6 0.00 0.00 0.00 79 1021.9
20260508172312 11 108 0.0 0.0 0.00 0.00 0.00 79 1021.9
20260508171808 11 92 0.0 1.6 0.00 0.00 0.00 79 1021.6
20260508171304 11 103 1.6 1.6 0.00 0.00 0.00 79 1021.9
20260508170801 11 169 0.0 3.2 0.00 0.00 0.00 79 1021.9
20260508170259 11 97 1.6 4.8 0.00 0.00 0.00 78 1021.9
20260508165755 11 113 0.0 1.6 0.00 0.00 0.00 78 1021.3
20260508165253 11 95 0.0 1.6 0.00 0.00 0.00 78 1021.3
20260508164743 11 159 3.2 4.8 0.00 0.00 0.00 79 1021.3
20260508164240 11 165 4.8 4.8 0.00 0.00 0.00 78 1021.3
20260508163738 11 153 1.6 3.2 0.00 0.00 0.00 79 1021.3
20260508163236 11 125 0.0 3.2 0.00 0.00 0.00 79 1021.3
20260508162731 11 200 6.4 6.4 0.00 0.00 0.00 78 1020.9
20260508162228 11 70 1.6 1.6 0.00 0.00 0.00 78 1020.9
20260508161725 11 104 0.0 1.6 0.00 0.00 0.00 78 1020.6
20260508161222 11 112 0.0 1.6 0.00 0.00 0.00 78 1020.9
20260508160720 11 118 0.0 3.2 0.00 0.00 0.00 79 1020.9
20260508160218 11 95 0.0 1.6 0.00 0.00 0.00 78 1020.6
20260508155714 11 125 1.6 4.8 0.00 0.00 0.00 78 1020.6
20260508155211 11 150 0.0 6.4 0.00 0.00 0.00 79 1020.6
20260508154708 11 80 1.6 4.8 0.00 0.00 0.00 78 1020.2
20260508154205 11 60 1.6 3.2 0.00 0.00 0.00 79 1020.6
20260508153702 11 129 0.0 3.2 0.00 0.00 0.00 79 1020.6
20260508153159 11 83 0.0 3.2 0.00 0.00 0.00 80 1020.6
20260508152655 11 300 4.8 4.8 0.00 0.00 0.00 80 1020.9
20260508152151 11 98 1.6 1.6 0.00 0.00 0.00 81 1020.9
20260508151648 10 10 3.2 4.8 0.00 0.00 0.00 82 1020.6
20260508151145 10 45 3.2 4.8 0.00 0.00 0.00 83 1020.6
20260508150642 10 120 1.6 3.2 0.00 0.00 0.00 84 1020.6
20260508150138 10 76 3.2 3.2 0.00 0.00 0.00 84 1020.6
20260508145634 10 279 1.6 4.8 0.00 0.00 0.00 85 1020.6
20260508145131 10 135 1.6 1.6 0.00 0.00 0.00 85 1020.6
20260508144628 10 275 1.6 3.2 0.00 0.00 0.00 85 1020.6
20260508144126 10 111 3.2 3.2 0.00 0.00 0.00 85 1020.6
20260508143623 10 239 1.6 3.2 0.00 0.00 0.00 85 1020.2
20260508143120 10 143 0.0 1.6 0.00 0.00 0.00 85 1020.2
20260508142617 10 208 0.0 1.6 0.00 0.00 0.00 85 1020.2
20260508142113 10 125 0.0 1.6 0.00 0.00 0.00 85 1020.2
20260508141610 10 141 1.6 3.2 0.00 0.00 0.00 85 1019.9
20260508141108 10 96 0.0 1.6 0.00 0.00 0.00 85 1019.9
20260508140605 10 117 0.0 0.0 0.00 0.00 0.00 85 1019.9
20260508135557 9 101 1.6 3.2 0.00 0.00 0.00 86 1019.9
20260508135053 9 324 0.0 3.2 0.00 0.00 0.00 86 1019.9
20260508134550 9 143 0.0 0.0 0.00 0.00 0.00 86 1019.9
20260508134047 9 96 1.6 3.2 0.00 0.00 0.00 86 1019.9
20260508133544 9 217 0.0 1.6 0.00 0.00 0.00 86 1019.6
20260508133041 9 89 3.2 4.8 0.00 0.00 0.00 86 1019.6
20260508132539 9 59 1.6 3.2 0.00 0.00 0.00 86 1019.6
20260508132035 9 153 0.0 1.6 0.00 0.00 0.00 87 1019.6
20260508131531 9 101 0.0 1.6 0.00 0.00 0.00 87 1019.6
20260508131028 9 218 1.6 4.8 0.00 0.00 0.00 87 1019.6
20260508130525 9 64 3.2 4.8 0.00 0.00 0.00 87 1019.2
20260508130021 9 307 3.2 4.8 0.00 0.00 0.00 87 1019.6
20260508125517 9 252 1.6 4.8 0.00 0.00 0.00 87 1019.6
20260508125015 9 99 1.6 6.4 0.00 0.00 0.00 87 1019.2
20260508124512 9 267 1.6 3.2 0.00 0.00 0.00 87 1019.2
20260508124009 9 6 4.8 4.8 0.00 0.00 0.00 87 1019.2
20260508123508 9 6 3.2 4.8 0.00 0.00 0.00 87 1019.6
20260508123004 9 284 1.6 3.2 0.00 0.00 0.00 87 1019.2
20260508122501 9 30 1.6 3.2 0.00 0.00 0.00 87 1018.9
20260508121958 9 336 3.2 4.8 0.00 0.00 0.00 87 1019.2
20260508121456 9 337 1.6 4.8 0.00 0.00 0.00 88 1018.9
20260508120954 9 357 1.6 9.7 0.00 0.00 0.00 88 1019.2
20260508120451 8 133 0.0 3.2 0.00 0.00 0.00 88 1019.2
20260508115949 8 358 3.2 4.8 0.00 0.00 0.00 89 1018.9
20260508115447 8 5 0.0 11.3 0.00 0.00 0.00 89 1019.2
20260508114943 8 120 0.0 3.2 0.00 0.00 0.00 90 1018.9
20260508114440 8 121 1.6 4.8 0.00 0.00 0.00 91 1018.9
20260508113937 8 99 0.0 3.2 0.00 0.00 0.00 91 1018.9
20260508113434 8 359 0.0 6.4 0.00 0.00 0.00 92 1018.9
20260508112931 8 123 0.0 0.0 0.00 0.00 0.00 92 1018.9
20260508112428 8 57 0.0 4.8 0.00 0.00 0.00 92 1018.9
20260508111925 8 93 0.0 1.6 0.00 0.00 0.00 92 1018.9
20260508111422 7 83 0.0 0.0 0.00 0.00 0.00 92 1018.5
20260508110919 7 75 0.0 0.0 0.00 0.00 0.00 92 1018.5
20260508110416 7 84 0.0 0.0 0.00 0.00 0.00 92 1018.5
20260508105910 7 81 0.0 0.0 0.00 0.00 0.00 92 1018.5
20260508105407 7 128 0.0 0.0 0.00 0.00 0.00 92 1018.5
20260508104904 7 116 0.0 0.0 0.00 0.00 0.00 91 1018.5
20260508104401 7 113 0.0 0.0 0.00 0.00 0.00 91 1018.5
20260508103858 7 114 0.0 0.0 0.00 0.00 0.00 91 1018.5
20260508103355 7 136 0.0 0.0 0.00 0.00 0.00 91 1018.9
20260508102852 7 116 0.0 0.0 0.00 0.00 0.00 91 1018.5
20260508102351 8 105 0.0 0.0 0.00 0.00 0.00 91 1018.5
20260508101848 8 109 0.0 0.0 0.00 0.00 0.00 91 1018.5
20260508101345 8 115 0.0 0.0 0.00 0.00 0.00 91 1018.5
20260508100842 8 116 0.0 0.0 0.00 0.00 0.00 91 1018.5
20260508100341 8 117 0.0 0.0 0.00 0.00 0.00 90 1018.5
20260508095836 8 123 0.0 0.0 0.00 0.00 0.00 90 1018.5
20260508095334 8 139 0.0 0.0 0.00 0.00 0.00 90 1018.5
20260508094831 8 116 0.0 0.0 0.00 0.00 0.00 90 1018.5
20260508094328 8 116 0.0 0.0 0.00 0.00 0.00 90 1018.5
20260508093825 8 115 0.0 0.0 0.00 0.00 0.00 90 1018.5
20260508093322 8 112 0.0 0.0 0.00 0.00 0.00 89 1018.5
20260508092820 8 116 0.0 0.0 0.00 0.00 0.00 89 1018.5
20260508092318 8 128 0.0 0.0 0.00 0.00 0.00 89 1018.5
20260508091816 8 116 0.0 0.0 0.00 0.00 0.00 89 1018.5
20260508091311 8 116 0.0 0.0 0.00 0.00 0.00 89 1018.5
20260508090810 8 121 0.0 0.0 0.00 0.00 0.00 89 1018.5
20260508090308 8 136 0.0 0.0 0.00 0.00 0.00 88 1018.5
20260508085803 8 136 0.0 0.0 0.00 0.00 0.00 88 1018.5
20260508085300 8 137 0.0 0.0 0.00 0.00 0.00 87 1018.5
20260508084756 8 137 0.0 0.0 0.00 0.00 0.00 87 1018.5
20260508084254 8 119 0.0 0.0 0.00 0.00 0.00 87 1018.5
20260508083751 8 119 0.0 0.0 0.00 0.00 0.00 87 1018.5
20260508083248 8 119 0.0 0.0 0.00 0.00 0.00 87 1018.5
20260508082748 8 119 0.0 0.0 0.00 0.00 0.00 86 1018.9
20260508082246 8 119 0.0 0.0 0.00 0.00 0.00 86 1018.5
20260508081743 8 119 0.0 0.0 0.00 0.00 0.00 86 1018.5
20260508081240 8 131 0.0 0.0 0.00 0.00 0.00 86 1018.9
20260508080737 8 126 0.0 0.0 0.00 0.00 0.00 86 1018.5
20260508080235 8 125 0.0 0.0 0.00 0.00 0.00 86 1018.9
20260508075731 8 118 0.0 0.0 0.00 0.00 0.00 86 1018.9
20260508075228 8 109 0.0 0.0 0.00 0.00 0.00 87 1018.5
20260508074726 8 112 0.0 0.0 0.00 0.00 0.00 87 1018.5
20260508074223 8 98 0.0 0.0 0.00 0.00 0.00 87 1018.9
20260508073720 8 121 0.0 0.0 0.00 0.00 0.00 86 1018.9
20260508073218 8 125 0.0 0.0 0.00 0.00 0.00 87 1018.9
20260508072714 8 135 0.0 0.0 0.00 0.00 0.00 87 1018.9
20260508072211 8 113 0.0 0.0 0.00 0.00 0.00 86 1018.9
20260508071708 8 116 0.0 0.0 0.00 0.00 0.00 86 1018.9
20260508071206 8 120 0.0 0.0 0.00 0.00 0.00 86 1018.9
20260508070703 8 109 0.0 0.0 0.00 0.00 0.00 86 1018.9
20260508070202 8 114 0.0 0.0 0.00 0.00 0.00 86 1018.9
20260508065659 8 109 0.0 0.0 0.00 0.00 0.00 86 1019.2
20260508065157 8 317 1.6 4.8 0.00 0.00 0.00 87 1019.2
20260508064654 8 93 0.0 1.6 0.00 0.00 0.00 87 1019.2
20260508064152 8 108 0.0 1.6 0.00 0.00 0.00 87 1019.2
20260508063649 8 112 0.0 3.2 0.00 0.00 0.00 87 1018.9
20260508063147 8 83 1.6 1.6 0.00 0.00 0.00 87 1019.2
20260508062644 8 89 1.6 1.6 0.00 0.00 0.00 88 1019.2
20260508062141 8 25 3.2 3.2 0.00 0.00 0.00 88 1019.2
20260508061638 8 93 0.0 1.6 0.00 0.00 0.00 88 1019.2
20260508061136 8 91 3.2 3.2 0.00 0.00 0.00 88 1019.2
20260508060632 8 97 0.0 3.2 0.00 0.00 0.00 88 1019.6
20260508060129 8 341 3.2 4.8 0.00 0.00 0.00 88 1019.2
20260508055625 8 80 1.6 3.2 0.00 0.00 0.00 87 1019.6
20260508055122 8 55 1.6 1.6 0.00 0.00 0.00 87 1019.6
20260508054618 8 62 0.0 1.6 0.00 0.00 0.00 87 1019.6
20260508054116 8 172 1.6 4.8 0.00 0.00 0.00 87 1019.6
20260508053613 8 101 0.0 0.0 0.00 0.00 0.00 87 1019.6
20260508053111 8 113 0.0 1.6 0.00 0.00 0.00 86 1019.6
20260508052608 8 115 0.0 1.6 0.00 0.00 0.00 86 1019.6
20260508052105 8 120 0.0 1.6 0.00 0.00 0.00 86 1019.6
20260508051601 8 69 0.0 0.0 0.00 0.00 0.00 86 1019.6
20260508051056 8 110 0.0 1.6 0.00 0.00 0.00 86 1019.6
20260508050553 8 120 0.0 0.0 0.00 0.00 0.00 86 1019.6
20260508050050 9 114 0.0 0.0 0.00 0.00 0.00 85 1019.6
20260508045546 9 132 0.0 0.0 0.00 0.00 0.00 85 1019.6
20260508045044 9 104 0.0 0.0 0.00 0.00 0.00 84 1019.6
20260508044541 9 101 0.0 1.6 0.00 0.00 0.00 84 1019.6
20260508044037 9 107 0.0 0.0 0.00 0.00 0.00 84 1019.6
20260508043534 9 119 1.6 1.6 0.00 0.00 0.00 84 1019.6
20260508043031 10 39 0.0 1.6 0.00 0.00 0.00 84 1019.6
20260508042528 10 97 0.0 0.0 0.00 0.00 0.00 83 1019.6
20260508042025 10 115 0.0 3.2 0.00 0.00 0.00 83 1019.9
20260508041521 10 105 0.0 1.6 0.00 0.00 0.00 83 1019.9
20260508041018 10 114 0.0 0.0 0.00 0.00 0.00 83 1019.9
20260508040515 10 98 0.0 1.6 0.00 0.00 0.00 83 1019.6
20260508040013 10 108 0.0 0.0 0.00 0.00 0.00 82 1019.9
20260508035509 10 100 0.0 3.2 0.00 0.00 0.00 82 1019.9
20260508035006 10 2 1.6 1.6 0.00 0.00 0.00 82 1019.9
20260508034504 10 145 0.0 0.0 0.00 0.00 0.00 82 1019.6
20260508034000 10 355 3.2 3.2 0.00 0.00 0.00 81 1019.9
20260508033458 10 91 1.6 1.6 0.00 0.00 0.00 81 1019.6
20260508032955 10 112 0.0 1.6 0.00 0.00 0.00 81 1019.6
20260508032453 11 123 0.0 1.6 0.00 0.00 0.00 80 1019.9
20260508031949 11 109 0.0 0.0 0.00 0.00 0.00 80 1019.6
20260508031447 11 110 0.0 0.0 0.00 0.00 0.00 79 1019.6
20260508030942 11 253 0.0 1.6 0.00 0.00 0.00 79 1019.6
20260508030440 11 51 1.6 3.2 0.00 0.00 0.00 79 1019.6
20260508025937 11 138 1.6 3.2 0.00 0.00 0.00 79 1019.6
20260508025433 11 6 1.6 6.4 0.00 0.00 0.00 79 1019.9
20260508024931 11 69 1.6 4.8 0.00 0.00 0.00 78 1019.9
20260508024427 11 345 1.6 4.8 0.00 0.00 0.00 78 1019.9
20260508023923 11 118 1.6 3.2 0.00 0.00 0.00 78 1019.9
20260508023420 12 81 0.0 1.6 0.00 0.00 0.00 78 1019.9
20260508022918 12 105 0.0 4.8 0.00 0.00 0.00 78 1019.9
20260508022413 12 342 3.2 3.2 0.00 0.00 0.00 78 1019.9
20260508021910 12 92 0.0 3.2 0.00 0.00 0.00 78 1019.9
20260508021406 12 96 0.0 6.4 0.00 0.00 0.00 77 1019.9
20260508020902 12 91 0.0 3.2 0.00 0.00 0.00 77 1019.9
20260508020400 12 339 1.6 3.2 0.00 0.00 0.00 77 1020.2
20260508015857 12 82 1.6 6.4 0.00 0.00 0.00 77 1019.9
20260508015355 13 108 1.6 12.9 0.00 0.00 0.00 75 1019.9
20260508014851 14 60 4.8 9.7 0.00 0.00 0.00 71 1019.9
20260508014348 15 77 3.2 3.2 0.00 0.00 0.00 68 1019.9
20260508013843 15 257 1.6 6.4 0.00 0.00 0.00 67 1020.2
20260508013340 16 84 1.6 3.2 0.00 0.00 0.00 64 1020.2
20260508012837 16 280 1.6 3.2 0.00 0.00 0.00 62 1020.2
20260508012335 16 130 0.0 3.2 0.00 0.00 0.00 64 1019.9
20260508011832 16 97 1.6 3.2 0.00 0.00 0.00 63 1020.2
20260508011329 16 117 0.0 1.6 0.00 0.00 0.00 62 1020.2
20260508010821 16 61 3.2 6.4 0.00 0.00 0.00 63 1020.2
20260508010319 17 77 1.6 1.6 0.00 0.00 0.00 62 1020.2
20260508005816 17 105 0.0 3.2 0.00 0.00 0.00 61 1020.2
20260508005313 17 113 0.0 3.2 0.00 0.00 0.00 61 1020.2
20260508004809 17 96 1.6 3.2 0.00 0.00 0.00 61 1020.2
20260508004305 16 114 0.0 3.2 0.00 0.00 0.00 63 1020.2
20260508003801 16 88 1.6 1.6 0.00 0.00 0.00 62 1020.2
20260508003259 16 113 3.2 3.2 0.00 0.00 0.00 62 1020.2
20260508002755 16 111 0.0 3.2 0.00 0.00 0.00 62 1020.2
20260508002252 16 104 0.0 1.6 0.00 0.00 0.00 60 1020.2
20260508001748 17 98 0.0 3.2 0.00 0.00 0.00 60 1020.2
20260508001244 17 114 1.6 3.2 0.00 0.00 0.00 61 1020.2
20260508000741 17 128 3.2 3.2 0.00 0.00 0.00 60 1020.6
20260508000238 17 145 3.2 6.4 0.00 0.00 0.00 60 1020.2
20260507235734 16 83 1.6 3.2 0.00 0.00 0.00 61 1020.2
20260507235232 17 80 1.6 3.2 0.00 0.00 0.00 61 1020.6
20260507234728 17 108 0.0 3.2 0.00 0.00 0.00 61 1020.2
20260507234225 17 207 6.4 6.4 0.00 0.00 0.00 60 1020.2
20260507233721 17 172 6.4 9.7 0.00 0.00 0.00 60 1020.2
20260507233220 17 155 4.8 9.7 0.00 0.00 0.00 60 1020.2
20260507232716 17 150 0.0 3.2 0.00 0.00 0.00 60 1020.6
20260507232214 17 66 1.6 3.2 0.00 0.00 0.00 61 1020.6
20260507231710 16 114 1.6 3.2 0.00 0.00 0.00 62 1020.6
20260507231207 16 116 3.2 3.2 0.00 0.00 0.00 62 1020.6
20260507230703 16 112 1.6 3.2 0.00 0.00 0.00 61 1020.6
20260507230200 17 96 1.6 12.9 0.00 0.00 0.00 59 1020.6
20260507225655 17 111 3.2 4.8 0.00 0.00 0.00 59 1020.9
20260507225152 17 109 0.0 1.6 0.00 0.00 0.00 58 1020.9
20260507224647 18 106 1.6 4.8 0.00 0.00 0.00 58 1020.6
20260507224144 17 107 3.2 4.8 0.00 0.00 0.00 59 1020.9
20260507223640 18 110 3.2 4.8 0.00 0.00 0.00 57 1020.9
20260507223137 17 67 1.6 6.4 0.00 0.00 0.00 59 1020.9
20260507222634 17 194 1.6 9.7 0.00 0.00 0.00 59 1020.9
20260507222130 17 142 3.2 3.2 0.00 0.00 0.00 59 1020.9
20260507221626 17 82 1.6 6.4 0.00 0.00 0.00 60 1020.9
20260507221123 16 97 1.6 4.8 0.00 0.00 0.00 61 1021.3
20260507220620 17 108 6.4 9.7 0.00 0.00 0.00 58 1021.3
20260507220118 17 113 3.2 11.3 0.00 0.00 0.00 59 1021.3
20260507215614 17 103 1.6 4.8 0.00 0.00 0.00 61 1021.3
20260507215112 17 103 1.6 4.8 0.00 0.00 0.00 59 1021.3
20260507214609 17 90 1.6 3.2 0.00 0.00 0.00 59 1021.6
20260507214105 17 77 1.6 4.8 0.00 0.00 0.00 59 1021.3
20260507213601 17 94 3.2 4.8 0.00 0.00 0.00 58 1021.3
20260507213059 17 92 3.2 6.4 0.00 0.00 0.00 59 1021.3
20260507212554 17 126 3.2 6.4 0.00 0.00 0.00 59 1021.6
20260507212051 16 135 1.6 4.8 0.00 0.00 0.00 61 1021.6
20260507211548 16 177 4.8 11.3 0.00 0.00 0.00 62 1021.9
20260507211044 16 96 0.0 4.8 0.00 0.00 0.00 61 1021.6
20260507210542 16 113 3.2 11.3 0.00 0.00 0.00 62 1021.6
20260507210038 16 89 1.6 9.7 0.00 0.00 0.00 63 1021.9
20260507205535 17 195 8.0 11.3 0.00 0.00 0.00 60 1021.9
20260507205031 16 85 6.4 12.9 0.00 0.00 0.00 61 1021.9
20260507204527 15 89 8.0 11.3 0.00 0.00 0.00 65 1021.9
20260507204025 16 124 3.2 12.9 0.00 0.00 0.00 64 1021.9
20260507203523 16 116 4.8 9.7 0.00 0.00 0.00 62 1022.3
20260507203020 16 131 1.6 3.2 0.00 0.00 0.00 64 1022.3
20260507202516 16 117 0.0 4.8 0.00 0.00 0.00 63 1022.3
20260507202012 16 113 1.6 3.2 0.00 0.00 0.00 63 1022.3
20260507201508 16 103 3.2 14.5 0.00 0.00 0.00 62 1022.3
20260507201004 16 105 1.6 9.7 0.00 0.00 0.00 64 1022.3
20260507200500 16 105 3.2 11.3 0.00 0.00 0.00 62 1022.3
20260507195955 15 112 0.0 3.2 0.00 0.00 0.00 65 1022.3
20260507195453 17 62 3.2 4.8 0.00 0.00 0.00 61 1022.3
20260507194951 16 75 1.6 4.8 0.00 0.00 0.00 62 1022.3
20260507194447 15 86 0.0 9.7 0.00 0.00 0.00 67 1022.3
20260507193943 15 98 1.6 3.2 0.00 0.00 0.00 64 1022.3
20260507193440 15 84 1.6 3.2 0.00 0.00 0.00 64 1022.3
20260507192937 16 56 1.6 6.4 0.00 0.00 0.00 64 1022.3
20260507192433 15 163 1.6 6.4 0.00 0.00 0.00 65 1022.3
20260507191930 16 96 3.2 3.2 0.00 0.00 0.00 63 1022.6
20260507191426 15 85 0.0 6.4 0.00 0.00 0.00 66 1022.3
20260507190923 16 104 1.6 4.8 0.00 0.00 0.00 64 1022.3
20260507190421 16 80 1.6 6.4 0.00 0.00 0.00 63 1022.3
20260507185920 16 103 1.6 3.2 0.00 0.00 0.00 63 1022.6
20260507185416 15 101 1.6 4.8 0.00 0.00 0.00 68 1022.6
20260507184913 14 71 3.2 3.2 0.00 0.00 0.00 67 1022.6
20260507184411 15 79 6.4 6.4 0.00 0.00 0.00 65 1022.6
20260507183908 15 120 0.0 3.2 0.00 0.00 0.00 66 1022.6
20260507183405 15 116 0.0 3.2 0.00 0.00 0.00 67 1022.6
20260507182903 15 184 4.8 6.4 0.00 0.00 0.00 67 1022.6
20260507182358 15 125 3.2 9.7 0.00 0.00 0.00 66 1022.6
20260507181855 13 97 1.6 3.2 0.00 0.00 0.00 69 1022.6
20260507181350 15 77 6.4 9.7 0.00 0.00 0.00 68 1022.6
20260507180848 15 54 3.2 4.8 0.00 0.00 0.00 67 1022.6
20260507180344 15 99 3.2 3.2 0.00 0.00 0.00 66 1022.6
20260507175840 15 114 0.0 3.2 0.00 0.00 0.00 67 1022.6
20260507175337 13 179 0.0 1.6 0.00 0.00 0.00 68 1022.6
20260507174835 15 77 3.2 4.8 0.00 0.00 0.00 65 1022.9
20260507174332 13 100 1.6 1.6 0.00 0.00 0.00 68 1022.9